Location: Eastchurch
(51.4000°N, 0.8667°E)
Time: 00:28:50
(UTC+00:00)

Okean 1-7 - Pass Details

Date: 19 January 2026
Orbit: 566 x 588 km, 82.5° (Epoch: 18 February)

Event Time Altitude Azimuth Distance (km) Brightness Sun altitude
Rises 19:00:35 0° 190° (S) 2,757 6.6 -23.9°
Reaches altitude 10° 19:02:45 10° 191° (S) 1,863 5.7 -24.2°
Enters shadow 19:05:39 45° 195° (SSW) 780 3.6 -24.7°
